Location: Houston
(29.7631°N, 95.3631°W)
Time: 12:47:28
(UTC-05:00)

UNISAT 6 - Pass Details

Date: 21 September 2021
Orbit: 606 x 687 km, 97.7° (Epoch: 24 October)

Event Time Altitude Azimuth Distance (km) Brightness Sun altitude
Rises 21:24:11 0° 349° (NNW) 3,057 ? -27.6°
Reaches altitude 10° 21:27:14 10° 327° (NNW) 2,136 ? -28.3°
Maximum altitude 21:29:59 16° 291° (WNW) 1,772 ? -28.8°
Drops below altitude 10° 21:32:43 10° 255° (WSW) 2,119 ? -29.4°
Sets 21:35:45 0° 233° (SW) 3,020 ? -30.0°
